This is the latest recevied weather packets stored in our database for station/object KN6CRX-10. If no packets are shown the sender has not sent any weather packets the latest 10 day(s).
| Time | Temp. | Humidity | Pressure | Rain* | Wind** | Luminosity | Snow |
|---|---|---|---|---|---|---|---|
| 1788389084 | 25.56° C | 21% | 1014.2 hPa | 0 mm | - | 177 W/m² | - |
| 1788388782 | 26.11° C | 22% | 1014.1 hPa | 0 mm | - | 179 W/m² | - |
| 1788388477 | 25.56° C | 21% | 1014 hPa | 0 mm | - | 349 W/m² | - |
| 1788388176 | 25.56° C | 20% | 1014.1 hPa | 0 mm | - | 299 W/m² | - |
| 1788387874 | 26.67° C | 20% | 1014.2 hPa | 0 mm | - | 238 W/m² | - |
| 1788387574 | 26.67° C | 21% | 1014.2 hPa | 0 mm | - | 533 W/m² | - |
| 1788387273 | 27.22° C | 19% | 1014.4 hPa | 0 mm | - | 586 W/m² | - |
| 1788386969 | 26.67° C | 19% | 1014.4 hPa | 0 mm | - | 635 W/m² | - |
| 1788386669 | 26.67° C | 21% | 1014.1 hPa | 0 mm | - | 567 W/m² | - |
| 1788386364 | 26.67° C | 22% | 1014.2 hPa | 0 mm | - | 524 W/m² | - |
| 1788386060 | 25.56° C | 24% | 1014.2 hPa | 0 mm | - | 543 W/m² | - |
| 1788385756 | 25.56° C | 25% | 1014.4 hPa | 0 mm | - | 449 W/m² | - |
| 1788385454 | 25.56° C | 23% | 1014.5 hPa | 0 mm | - | 385 W/m² | - |
| 1788385149 | 25.56° C | 24% | 1014.4 hPa | 0 mm | - | 303 W/m² | - |
| 1788384845 | 26.67° C | 22% | 1014 hPa | 0 mm | - | 189 W/m² | - |
| 1788384544 | 26.67° C | 24% | 1014.2 hPa | 0 mm | - | 751 W/m² | - |
| 1788384240 | 26.67° C | 23% | 1014.4 hPa | 0 mm | - | 466 W/m² | - |
| 1788383936 | 26.11° C | 24% | 1014.2 hPa | 0 mm | - | 465 W/m² | - |
| 1788383632 | 26.67° C | 23% | 1014.4 hPa | 0 mm | - | 510 W/m² | - |
| 1788383327 | 26.67° C | 24% | 1014.2 hPa | 0 mm | - | 796 W/m² | - |
| 1788383026 | 26.67° C | 23% | 1014.2 hPa | 0 mm | - | 738 W/m² | - |
| 1788382725 | 26.67° C | 23% | 1014.6 hPa | 0 mm | - | 799 W/m² | - |
| 1788382420 | 26.67° C | 22% | 1014.5 hPa | 0 mm | - | 829 W/m² | - |
| 1788382116 | 26.67° C | 23% | 1014.4 hPa | 0 mm | - | 825 W/m² | - |
| 1788381815 | 26.67° C | 21% | 1014.6 hPa | 0 mm | - | 795 W/m² | - |
* Rain latest hour (hover to see other rain measurements)
** Current wind speed in m/s (hover to see current wind gust speed)